Location: Unspecified
(42.3650°N, 71.1030°W)
Time: 17:19:38
(UTC+00:00)

Transit 4A - Pass Details

Date: 29 June 2024
Orbit: 870 x 973 km, 66.8° (Epoch: 17 July)

Event Time Altitude Azimuth Distance (km) Brightness Sun altitude
Rises 02:26:18 0° 235° (SW) 3,458 10.9 -16.7°
Reaches altitude 10° 02:28:59 10° 244° (WSW) 2,517 10.3 -17.0°
Maximum altitude 02:34:17 36° 310° (NW) 1,349 9.4 -17.5°
Drops below altitude 10° 02:39:38 10° 17° (NNE) 2,530 10.8 -18.1°
Sets 02:42:21 0° 26° (NNE) 3,478 11.4 -18.3°
